Date,TemperatureHighF,TemperatureAvgF,TemperatureLowF,DewpointHighF,DewpointAvgF,DewpointLowF,HumidityHigh,HumidityAvg,HumidityLow,PressureMaxIn,PressureMinIn,WindSpeedMaxMPH,WindSpeedAvgMPH,GustSpeedMaxMPH,PrecipitationSumIn
2013-10-1,53,44,36,39,34,28,79,67,42,30.19,29.98,22,9,22,0.00
2013-10-2,51,40,31,36,31,27,88,73,45,30.19,30.06,14,6,14,0.01
2013-10-3,51,41,34,35,32,30,92,73,48,30.46,30.15,13,3,13,0.01
2013-10-4,60,45,32,36,31,25,85,61,28,30.54,30.41,13,5,13,0.00
2013-10-5,74,52,35,38,30,26,74,47,18,30.43,30.21,18,6,18,0.00
2013-10-6,75,56,41,40,32,28,65,44,22,30.22,29.93,16,6,16,0.00
2013-10-7,56,50,40,40,32,25,78,52,39,30.07,29.90,28,8,28,0.00
2013-10-8,50,42,35,41,35,30,89,76,51,30.08,29.94,15,5,15,0.07
2013-10-9,44,40,36,36,35,34,91,82,70,30.07,29.99,14,6,14,0.02
2013-10-10,57,45,36,36,34,31,85,67,42,30.07,29.94,17,7,17,0.00
2013-10-11,53,44,35,38,34,31,86,70,48,30.13,30.05,15,7,15,0.00
2013-10-12,48,42,36,38,35,32,89,77,60,30.16,30.03,13,5,13,0.00
2013-10-13,50,44,38,39,37,33,92,77,54,30.32,30.15,10,4,10,0.00
2013-10-14,55,43,32,36,32,28,92,68,44,30.43,30.31,13,5,13,0.00
2013-10-15,54,39,30,32,29,25,82,67,42,30.42,30.30,12,3,12,0.00
2013-10-16,54,54,54,32,32,32,42,42,42,30.03,29.92,0,0,0,0.00
2013-10-17,54,54,54,32,32,32,42,42,42,30.05,29.90,0,0,0,0.00
2013-10-18,54,54,54,32,32,32,42,42,42,29.97,29.87,0,0,0,0.00
2013-10-19,54,54,54,32,32,32,42,42,42,29.89,29.81,0,0,0,0.00
2013-10-20,54,54,54,32,32,32,42,42,42,29.91,29.84,0,0,0,0.00
2013-10-21,54,54,54,32,32,32,42,42,42,29.91,29.83,0,0,0,0.00
2013-10-22,54,54,54,32,32,32,42,42,42,29.90,29.78,0,0,0,0.00
2013-10-23,54,54,54,32,32,32,42,42,42,29.83,29.75,0,0,0,0.00
2013-10-24,54,54,54,32,32,32,42,42,42,29.85,29.75,0,0,0,0.00
2013-10-25,54,54,54,32,32,32,42,42,42,29.97,29.85,0,0,0,0.00
2013-10-26,54,54,54,32,32,32,42,42,42,29.98,29.81,0,0,0,0.00
2013-10-27,54,54,54,32,32,32,42,42,42,29.83,29.42,0,0,0,0.00
2013-10-28,54,54,54,32,32,32,42,42,42,29.58,29.42,0,0,0,0.00
2013-10-29,54,54,54,32,32,32,42,42,42,29.70,29.58,0,0,0,0.00
2013-10-30,66,58,54,36,34,32,45,39,32,29.83,29.68,0,0,0,0.00
2013-10-31,68,67,65,45,41,36,46,40,33,29.91,29.81,0,0,0,0.00